Hourly Data Report for October 22, 2014

All times are specified in Local Standard Time (LST). Add 1 hour to adjust for Daylight Saving Time where and when it is observed.

Metadata including Station Name, Province, Latitude, Longitude, Elevation, Climate ID, WMO ID, TC ID
PUVIRNITUQ A
QUEBEC
Latitude: 60°03'08.000" N Longitude: 77°17'15.000" W Elevation: 25.30 m
Climate ID: 7106223 WMO ID: TC ID: YPX
Hourly Data Report for October 21, 2014
Temp Definition
°C

Dew Point Temp Definition
°C

Rel Hum Definition
%

Wind Dir Definition
10's deg
Wind Spd Definition
km/h

Visibility Definition
km

Stn Press Definition
kPa

Hmdx Definition

Wind Chill Definition

Weather Definition

00:00 Legend Double Dagger -1.3 -1.9 96 19 26 16.1 101.38 -8 Snow
01:00 Legend Double Dagger -0.6 -0.9 98 18 21 14.5 101.38 -6 Snow
02:00 Legend Double Dagger -0.3 -0.4 99 19 28 4.8 101.35 -7 Freezing Rain,Snow
03:00 Legend Double Dagger 0.3 0.3 100 22 13 3.2 101.39 Rain,Fog
04:00 Legend Double Dagger 0.6 0.5 99 29 24 2.0 101.42 Fog
05:00 Legend Double Dagger 0.4 0.4 100 28 24 16.1 101.46 LegendNANA
06:00 Legend Double Dagger 0.1 0.0 99 28 18 12.9 101.50 Freezing Rain
07:00 Legend Double Dagger -0.1 -0.2 99 25 15 11.3 101.52 -5 Snow
08:00 Legend Double Dagger -0.8 -1.1 98 25 13 16.1 101.52 -5 LegendNANA
09:00 Legend Double Dagger 0.2 -0.1 98 24 11 16.1 101.49 LegendNANA
10:00 Legend Double Dagger 0.7 0.4 98 26 17 8.1 101.49 Snow
11:00 Legend Double Dagger 1.8 1.0 94 25 18 16.1 101.50 LegendNANA
12:00 Legend Double Dagger 1.5 0.8 95 23 22 16.1 101.46 Snow
13:00 Legend Double Dagger 2.0 0.0 87 24 26 16.1 101.42 LegendNANA
14:00 Legend Double Dagger 1.9 1.0 94 21 21 16.1 101.43 LegendNANA
15:00 Legend Double Dagger 2.0 1.1 94 20 18 16.1 101.42 LegendNANA
16:00 Legend Double Dagger 1.9 1.3 96 20 26 16.1 101.38 LegendNANA
17:00 Legend Double Dagger 1.9 1.0 94 20 28 16.1 101.36 Rain
18:00 Legend Double Dagger 1.9 1.0 94 20 34 16.1 101.31 LegendNANA
19:00 Legend Double Dagger 1.5 0.6 94 18 34 16.1 101.26 LegendNANA
20:00 Legend Double Dagger 1.1 0.1 93 18 46 16.1 101.14 LegendNANA
21:00 Legend Double Dagger 1.1 -0.2 91 18 45 16.1 101.10 LegendNANA
22:00 Legend Double Dagger 1.2 -0.1 91 18 48 16.1 101.02 LegendNANA
23:00 Legend Double Dagger 1.5 0.3 92 18 41 16.1 100.98 LegendNANA

Notes on Data Quality.

Legend
  • E = Estimated
  • M = Missing
  • NA = Not Available
  • ‡ = Partner data that is not subject to review by the National Climate Archives